When you browse on this site, cookies collect data to enhance your experience and personalize the content and advertising you see.
Visit our Privacy Policy to learn more. By continuing to use the site, you agree to this use of cookies and data.
  • In France
  • List of Countries
  • For 7 days
  • Water Temperature
  • Weather Map
  • Weather Widgets
  • user-avatar
    Login

    Hourly Weather San Clemente

    Today, 19 September, Thursday

    Time Temperature Precipitation Wind Pressure Humidity
    00:00 +5°C° 0 mm 3 mps 743 mmHg 92%
    01:00 +5°C° 0 mm 3 mps 743 mmHg 94%
    02:00 +4°C° 0 mm 3 mps 744 mmHg 91%
    03:00 +4°C° 0 mm 3 mps 744 mmHg 88%
    04:00 +3°C° 0 mm 3 mps 744 mmHg 85%
    05:00 +3°C° 0 mm 3 mps 744 mmHg 83%
    06:00 +4°C° 0 mm 3 mps 745 mmHg 81%
    07:00 +4°C° 0 mm 3 mps 745 mmHg 79%
    08:00 +6°C° 0 mm 4 mps 745 mmHg 73%
    09:00 +7°C° 0 mm 4 mps 745 mmHg 68%
    10:00 +10°C° 0 mm 4 mps 745 mmHg 62%
    11:00 +10°C° 0 mm 5 mps 745 mmHg 59%
    12:00 +12°C° 0 mm 5 mps 745 mmHg 57%
    13:00 +13°C° 0 mm 6 mps 744 mmHg 54%
    14:00 +13°C° 0 mm 6 mps 745 mmHg 57%
    15:00 +13°C° 0 mm 5 mps 745 mmHg 59%
    16:00 +12°C° 0 mm 5 mps 745 mmHg 61%
    17:00 +10°C° 0 mm 4 mps 746 mmHg 67%
    18:00 +7°C° 0 mm 4 mps 746 mmHg 72%
    19:00 +5°C° 0 mm 3 mps 747 mmHg 77%
    20:00 +6°C° 0 mm 2 mps 747 mmHg 80%
    21:00 +5°C° 0 mm 2 mps 748 mmHg 82%
    22:00 +4°C° 0 mm 2 mps 748 mmHg 84%
    23:00 +4°C° 0 mm 2 mps 748 mmHg 86%

    Tomorrow, 20 September, Friday

    Time Temperature Precipitation Wind Pressure Humidity
    00:00 +3°C° 0 mm 2 mps 748 mmHg 88%
    01:00 +3°C° 0 mm 2 mps 748 mmHg 90%
    02:00 +2°C° 0 mm 2 mps 748 mmHg 90%
    03:00 +2°C° 0 mm 2 mps 748 mmHg 90%
    04:00 +2°C° 0 mm 2 mps 748 mmHg 91%
    05:00 +2°C° 0 mm 2 mps 748 mmHg 87%
    06:00 +3°C° 0 mm 2 mps 748 mmHg 84%
    07:00 +4°C° 0 mm 2 mps 748 mmHg 80%
    08:00 +5°C° 0 mm 3 mps 748 mmHg 74%
    09:00 +9°C° 0 mm 3 mps 748 mmHg 67%
    10:00 +11°C° 0 mm 4 mps 748 mmHg 60%
    11:00 +12°C° 0 mm 4 mps 748 mmHg 59%
    12:00 +14°C° 0 mm 4 mps 747 mmHg 57%
    13:00 +15°C° 0 mm 5 mps 747 mmHg 55%
    14:00 +15°C° 0 mm 4 mps 747 mmHg 58%
    15:00 +14°C° 0 mm 4 mps 747 mmHg 60%
    16:00 +14°C° 0 mm 4 mps 747 mmHg 62%
    17:00 +12°C° 0 mm 4 mps 747 mmHg 69%
    18:00 +10°C° 0 mm 3 mps 747 mmHg 76%
    19:00 +8°C° 0 mm 3 mps 748 mmHg 83%
    20:00 +7°C° 0 mm 2 mps 748 mmHg 83%
    21:00 +6°C° 0 mm 2 mps 748 mmHg 83%
    22:00 +5°C° 0 mm 2 mps 747 mmHg 84%
    23:00 +5°C° 0 mm 2 mps 747 mmHg 84%

    Day after tomorrow, 21 September, Saturday

    Time Temperature Precipitation Wind Pressure Humidity
    00:00 +4°C° 0 mm 2 mps 747 mmHg 84%
    01:00 +4°C° 0 mm 2 mps 746 mmHg 84%
    02:00 +3°C° 0 mm 2 mps 746 mmHg 84%
    03:00 +3°C° 0 mm 2 mps 746 mmHg 84%
    04:00 +2°C° 0 mm 2 mps 746 mmHg 84%
    05:00 +3°C° 0 mm 2 mps 746 mmHg 81%
    06:00 +3°C° 0 mm 3 mps 745 mmHg 78%
    07:00 +4°C° 0 mm 3 mps 745 mmHg 75%
    08:00 +7°C° 0 mm 3 mps 745 mmHg 69%
    09:00 +10°C° 0 mm 4 mps 745 mmHg 63%
    10:00 +12°C° 0 mm 4 mps 745 mmHg 57%
    11:00 +14°C° 0 mm 4 mps 744 mmHg 56%
    12:00 +15°C° 0 mm 5 mps 744 mmHg 56%
    13:00 +17°C° 0 mm 5 mps 744 mmHg 56%
    14:00 +17°C° 0 mm 5 mps 743 mmHg 59%
    15:00 +17°C° 0 mm 4 mps 743 mmHg 62%
    16:00 +17°C° 0 mm 4 mps 743 mmHg 65%
    17:00 +14°C° 0 mm 3 mps 743 mmHg 73%
    18:00 +11°C° 0 mm 3 mps 743 mmHg 80%
    19:00 +9°C° 0 mm 2 mps 743 mmHg 88%
    20:00 +8°C° 0 mm 2 mps 743 mmHg 87%
    21:00 +7°C° 0 mm 2 mps 743 mmHg 86%
    22:00 +6°C° 0 mm 2 mps 743 mmHg 86%
    23:00 +7°C° 0 mm 1 mps 743 mmHg 85%

    22 September, Sunday

    Time Temperature Precipitation Wind Pressure Humidity
    00:00 +7°C° 0 mm 1 mps 743 mmHg 85%
    01:00 +6°C° 0 mm 1 mps 742 mmHg 85%
    02:00 +6°C° 0 mm 1 mps 742 mmHg 85%
    03:00 +5°C° 0 mm 1 mps 742 mmHg 86%
    04:00 +5°C° 0 mm 1 mps 742 mmHg 86%
    05:00 +6°C° 0 mm 1 mps 742 mmHg 85%
    06:00 +7°C° 0 mm 1 mps 742 mmHg 84%
    07:00 +8°C° 0 mm 1 mps 743 mmHg 82%
    08:00 +10°C° 0 mm 1 mps 743 mmHg 76%
    09:00 +12°C° 0 mm 1 mps 743 mmHg 70%
    10:00 +14°C° 0 mm 2 mps 743 mmHg 64%
    11:00 +16°C° 0 mm 1 mps 743 mmHg 62%
    12:00 +18°C° 0 mm 1 mps 743 mmHg 59%
    13:00 +20°C° 0 mm 1 mps 743 mmHg 57%
    14:00 +20°C° 0 mm 1 mps 744 mmHg 59%
    15:00 +20°C° 0 mm 1 mps 744 mmHg 60%
    16:00 +20°C° 0 mm 1 mps 744 mmHg 61%
    17:00 +16°C° 0 mm 1 mps 744 mmHg 69%
    18:00 +14°C° 0 mm 1 mps 745 mmHg 77%
    19:00 +12°C° 0 mm 1 mps 745 mmHg 84%
    20:00 +12°C° 0 mm 1 mps 745 mmHg 85%
    21:00 +11°C° 0 mm 1 mps 746 mmHg 85%
    22:00 +10°C° 0 mm 1 mps 746 mmHg 86%
    23:00 +10°C° 0 mm 1 mps 746 mmHg 86%

    23 September, Monday

    Time Temperature Precipitation Wind Pressure Humidity
    00:00 +9°C° 0 mm 1 mps 746 mmHg 87%
    01:00 +9°C° 0 mm 1 mps 746 mmHg 88%
    02:00 +8°C° 0 mm 1 mps 746 mmHg 88%
    03:00 +6°C° 0 mm 2 mps 746 mmHg 89%
    04:00 +6°C° 0 mm 2 mps 746 mmHg 89%
    05:00 +6°C° 0 mm 2 mps 746 mmHg 87%
    06:00 +7°C° 0 mm 2 mps 746 mmHg 85%
    07:00 +8°C° 0 mm 2 mps 746 mmHg 83%
    08:00 +10°C° 0 mm 2 mps 746 mmHg 76%
    09:00 +13°C° 0 mm 3 mps 746 mmHg 69%
    10:00 +16°C° 0 mm 3 mps 746 mmHg 62%
    11:00 +18°C° 0 mm 3 mps 746 mmHg 60%
    12:00 +19°C° 0 mm 4 mps 746 mmHg 58%
    13:00 +21°C° 0 mm 4 mps 745 mmHg 56%
    14:00 +21°C° 0 mm 4 mps 745 mmHg 58%
    15:00 +21°C° 0 mm 4 mps 744 mmHg 60%
    16:00 +21°C° 0 mm 4 mps 744 mmHg 62%
    17:00 +18°C° 0 mm 3 mps 744 mmHg 67%
    18:00 +16°C° 0 mm 3 mps 744 mmHg 72%
    19:00 +13°C° 0 mm 3 mps 744 mmHg 76%
    20:00 +13°C° 0 mm 2 mps 744 mmHg 76%
    21:00 +12°C° 0 mm 2 mps 744 mmHg 77%
    22:00 +10°C° 0 mm 2 mps 744 mmHg 77%
    23:00 +9°C° 0 mm 2 mps 743 mmHg 77%

    24 September, Tuesday

    Time Temperature Precipitation Wind Pressure Humidity
    00:00 +9°C° 0 mm 2 mps 743 mmHg 78%
    01:00 +9°C° 0 mm 1 mps 743 mmHg 79%
    02:00 +9°C° 0 mm 1 mps 743 mmHg 80%
    03:00 +8°C° 0 mm 1 mps 743 mmHg 81%
    04:00 +8°C° 0 mm 1 mps 742 mmHg 81%
    05:00 +9°C° 0 mm 1 mps 743 mmHg 79%
    06:00 +10°C° 0 mm 1 mps 743 mmHg 77%
    07:00 +11°C° 0 mm 1 mps 743 mmHg 75%
    08:00 +14°C° 0 mm 1 mps 743 mmHg 68%
    09:00 +18°C° 0 mm 1 mps 743 mmHg 61%
    10:00 +20°C° 0 mm 1 mps 743 mmHg 55%
    11:00 +22°C° 0 mm 1 mps 743 mmHg 52%
    12:00 +23°C° 0 mm 1 mps 742 mmHg 50%
    13:00 +25°C° 0 mm 2 mps 742 mmHg 47%
    14:00 +25°C° 0 mm 1 mps 742 mmHg 50%
    15:00 +25°C° 0 mm 1 mps 742 mmHg 53%
    16:00 +25°C° 0 mm 1 mps 742 mmHg 56%
    17:00 +22°C° 0 mm 1 mps 742 mmHg 64%
    18:00 +19°C° 0 mm 1 mps 742 mmHg 71%
    19:00 +16°C° 0 mm 1 mps 743 mmHg 78%
    20:00 +15°C° 0 mm 1 mps 743 mmHg 77%
    21:00 +15°C° 0 mm 1 mps 743 mmHg 76%
    22:00 +15°C° 0 mm 1 mps 743 mmHg 74%
    23:00 +14°C° 0 mm 1 mps 743 mmHg 74%
    Show more